This demonstration page uses our WeatherBlox Daily Observations layout. Learn more.

Hourly Observations for March 13, 2020

Temp ( °F °C ) Dew Point ( °F °C ) Humidity (%) Winds ( mph kmh ) Pressure ( in mb ) Visibility ( mi km ) Precip ( " mm )
12:15 am 00:15 Clear 30 -0.9 23 -5.2 73 73 NW 3 6 30.27 1025 10 16.0934 0 0
12:35 am 00:35 Clear 31 -0.7 22 -5.4 71 71 NNW 5 7 30.27 1025 10 16.0934 0 0
12:55 am 00:55 Partly Cloudy 29 -1.9 22 -5.7 76 76 N 5 7 30.28 1026 10 16.0934 0 0
1:15 am 01:15 Mostly Cloudy 30 -1.3 22 -5.4 74 74 N 5 7 30.28 1025 10 16.0934 0 0
1:35 am 01:35 Cloudy 31 -0.5 23 -4.9 72 72 N 5 7 30.26 1025 10 16.0934 0 0
1:55 am 01:55 Cloudy 31 -0.3 23 -4.8 72 72 Calm 30.26 1025 10 16.0934 0 0
2:15 am 02:15 Cloudy 31 -0.7 23 -4.8 74 74 Calm 30.27 1025 10 16.0934 0 0
2:35 am 02:35 Cloudy 31 -0.3 24 -4.2 75 75 Calm 30.28 1025 10 16.0934 0 0
2:55 am 02:55 Cloudy 32 0 24 -4.2 74 74 Calm 30.29 1026 10 16.0934 0 0
3:15 am 03:15 Cloudy 32 0.1 25 -3.7 76 76 N 3 6 30.29 1026 10 16.0934 0 0
3:35 am 03:35 Cloudy 33 0.4 26 -3.5 75 75 N 3 6 30.28 1025 10 16.0934 0 0
3:55 am 03:55 Cloudy 33 0.4 27 -2.8 79 79 N 5 7 30.29 1026 10 16.0934 0 0
4:15 am 04:15 Cloudy 33 0.5 26 -3.1 77 77 Calm 30.31 1026 10 16.0934 0 0
4:35 am 04:35 Cloudy 34 1.2 24 -4.2 68 68 N 3 6 30.3 1026 10 16.0934 0 0
4:55 am 04:55 Cloudy 34 1 26 -3.3 73 73 N 6 9 30.31 1026 10 16.0934 0 0
5:15 am 05:15 Cloudy 33 0.6 26 -3.3 75 75 NNE 6 9 30.3 1026 10 16.0934 0 0
5:35 am 05:35 Cloudy 33 0.7 25 -3.7 73 73 NE 6 9 30.3 1026 10 16.0934 0 0
5:55 am 05:55 Cloudy 33 0.6 26 -3.5 74 74 NE 3 6 30.31 1026 10 16.0934 0 0
6:15 am 06:15 Cloudy 33 0.7 26 -3.5 74 74 ENE 3 6 30.32 1027 10 16.0934 0 0
6:35 am 06:35 Cloudy 33 0.7 26 -3.3 75 75 NE 3 6 30.32 1027 10 16.0934 0 0
6:55 am 06:55 Cloudy 34 0.9 26 -3.5 73 73 Calm 30.32 1027 10 16.0934 0 0
7:15 am 07:15 Cloudy 34 1 26 -3.2 74 74 ESE 3 6 30.34 1027 10 16.0934 0 0
7:35 am 07:35 Cloudy 34 1 26 -3.2 74 74 E 5 7 30.34 1027 10 16.0934 0 0
7:55 am 07:55 Cloudy 34 1.1 26 -3.6 71 71 E 7 11 30.34 1027 10 16.0934 0 0
8:15 am 08:15 Cloudy 34 1.1 26 -3.3 73 73 E 6 9 30.36 1028 10 16.0934 0 0
8:35 am 08:35 Cloudy 34 1.1 26 -3.2 73 73 E 6 9 30.36 1028 10 16.0934 0 0
8:55 am 08:55 Cloudy 34 1.1 27 -3 74 74 ESE 7 11 30.37 1028 10 16.0934 0 0
9:15 am 09:15 Cloudy 35 1.4 26 -3.2 72 72 E 7 11 30.37 1029 10 16.0934 0 0
9:35 am 09:35 Cloudy 35 1.6 27 -2.9 72 72 SE 7 11 30.38 1029 10 16.0934 0 0
9:55 am 09:55 Cloudy 35 1.8 27 -2.8 72 72 SSE 8 13 30.39 1029 10 16.0934 0 0
10:15 am 10:15 Cloudy 36 2 26 -3.1 69 69 SE 6 9 30.4 1029 10 16.0934 0 0
10:35 am 10:35 Cloudy 36 2.3 26 -3.2 67 67 SE 6 9 30.39 1029 10 16.0934 0 0
10:55 am 10:55 Cloudy 37 2.8 26 -3.1 65 65 SSE 9 15 30.4 1029 10 16.0934 0 0
11:15 am 11:15 Cloudy 38 3.3 26 -3.2 63 63 SE 13 20 30.38 1029 10 16.0934 0 0
11:35 am 11:35 Cloudy 39 4 27 -2.8 62 62 SSE 14 22 30.39 1029 10 16.0934 0 0
11:55 am 11:55 Cloudy 38 3.1 28 -2.2 69 69 SSE 14 22 30.41 1030 10 16.0934 0 0
12:15 pm 12:15 Cloudy 38 3.2 28 -2.2 68 68 SE 12 19 30.41 1030 10 16.0934 0 0
12:35 pm 12:35 Cloudy with Light Snow 37 2.9 28 -2.1 70 70 SSE 12 19 30.4 1029 5 8.0467 0 0
12:55 pm 12:55 Cloudy with Light Snow 37 2.9 28 -2.2 69 69 ESE 12 19 30.39 1029 10 16.0934 0 0
1:15 pm 13:15 Cloudy with Light Snow 38 3.1 29 -1.9 70 70 SSE 15 24 30.4 1029 10 16.0934 0 0
1:35 pm 13:35 Cloudy with Light Snow 37 2.8 29 -1.4 74 74 SE 12 19 30.39 1029 5 8.0467 0 0
1:55 pm 13:55 Cloudy with Light Snow 37 2.8 29 -1.7 73 73 ESE 12 19 30.39 1029 5 8.0467 0 0
2:15 pm 14:15 Cloudy with Light Snow 36 2.3 31 -0.8 80 80 ESE 10 17 30.38 1029 2.5 4.02335 0 0
2:35 pm 14:35 Cloudy with Light Snow 35 1.9 30 -1 81 81 SE 12 19 30.39 1029 2 3.21868 0 0
2:55 pm 14:55 Cloudy with Snow 34 1 32 -0.2 92 92 SSE 8 13 30.4 1029 0.75 1.207005 0 0
3:15 pm 15:15 Cloudy with Snow 33 0.6 32 0 96 96 SE 8 13 30.4 1029 0.5 0.80467 0.01 0.254
3:35 pm 15:35 Cloudy with Snow 33 0.5 32 0 96 96 SE 8 13 30.39 1029 0.5 0.80467 0.02 0.508
3:55 pm 15:55 Cloudy with Light Snow 33 0.6 32 0 96 96 SE 8 13 30.39 1029 1 1.60934 0.04 1.016
4:15 pm 16:15 Cloudy with Light Snow 33 0.6 32 0 96 96 ESE 9 15 30.39 1029 1 1.60934 0.01 0.254
4:35 pm 16:35 Cloudy with Light Snow 33 0.6 32 0 96 96 ESE 9 15 30.38 1029 0.75 1.207005 0.02 0.508
4:55 pm 16:55 Cloudy with Snow 33 0.6 32 0 96 96 ESE 12 19 30.36 1028 0.75 1.207005 0.02 0.508
5:15 pm 17:15 Cloudy with Light Snow 33 0.5 32 0 96 96 ESE 12 19 30.36 1028 1 1.60934 0 0
5:35 pm 17:35 Cloudy with Light Snow 33 0.5 32 0 96 96 ESE 14 22 30.37 1028 1.25 2.011675 0 0
5:55 pm 17:55 Cloudy with Snow 33 0.3 32 -0.1 97 97 ESE 14 22 30.35 1028 0.5 0.80467 0.01 0.254
6:15 pm 18:15 Cloudy with Snow 32 0.1 32 -0.2 98 98 ESE 16 26 30.34 1028 0.5 0.80467 0.01 0.254
6:35 pm 18:35 Cloudy with Light Snow 32 0 32 -0.2 99 99 ESE 13 20 30.36 1028 0.5 0.80467 0.01 0.254
6:55 pm 18:55 Cloudy with Light Snow 32 0 32 -0.2 99 99 E 12 19 30.37 1028 0.75 1.207005 0.02 0.508
7:15 pm 19:15 Cloudy with Snow 32 0 32 -0.2 99 99 E 14 22 30.36 1028 0.5 0.80467 0 0
7:35 pm 19:35 Cloudy with Light Snow 32 0 31 -0.3 98 98 ESE 14 22 30.36 1028 0.75 1.207005 0 0
7:55 pm 19:55 Cloudy with Light Snow 32 0 31 -0.5 96 96 E 18 30 30.34 1027 1.25 2.011675 0.01 0.254
8:15 pm 20:15 Cloudy with Light Snow 32 0 31 -0.5 96 96 E 17 28 30.35 1028 1.75 2.816345 0 0
8:35 pm 20:35 Cloudy with Light Snow 32 0 31 -0.5 96 96 E 17 28 30.34 1027 2.5 4.02335 0.01 0.254
8:55 pm 20:55 Cloudy with Light Snow 32 0 31 -0.5 96 96 E 17 28 30.35 1028 4 6.43736 0.02 0.508
9:15 pm 21:15 Cloudy with Light Snow 32 0 31 -0.5 96 96 E 17 28 30.34 1027 2 3.21868 0 0
9:35 pm 21:35 Cloudy with Light Snow 32 -0.1 31 -0.6 96 96 ESE 16 26 30.36 1028 2.5 4.02335 0.01 0.254
9:55 pm 21:55 Cloudy with Light Snow 32 -0.2 31 -0.7 96 96 E 15 24 30.36 1028 2 3.21868 0.01 0.254
10:15 pm 22:15 Cloudy with Light Snow 32 -0.2 31 -0.7 96 96 E 16 26 30.36 1028 2 3.21868 0 0
10:35 pm 22:35 Cloudy with Light Snow 32 -0.2 31 -0.7 96 96 E 14 22 30.37 1028 3 4.82802 0 0
10:55 pm 22:55 Cloudy with Light Snow 32 -0.2 31 -0.8 96 96 E 17 28 30.37 1028 2 3.21868 0.01 0.254
11:15 pm 23:15 Cloudy with Light Snow 32 -0.2 31 -0.8 96 96 E 15 24 30.37 1028 1.75 2.816345 0 0
11:35 pm 23:35 Cloudy with Light Snow 31 -0.3 31 -0.8 96 96 E 16 26 30.37 1028 1.5 2.41401 0 0
11:55 pm 23:55 Cloudy with Light Snow 31 -0.5 30 -1 96 96 E 15 24 30.36 1028 5 8.0467 0 0

Powered by AerisWeather